Regional Weather Roundup
Issued by NWS

Home | Current Version | Previous Version | Graphics & Text | Print | Product List | Glossary On
Versions: 1 2 3 4 5 6 7 8 9 10 11 12 13 14 15 16 17 18 19 20 21 22 23 24 25 26 27 28 29 30 31 32 33 34 35 36 37 38 39 40 41 42 43 44 45 46 47 48 49 50
000
ASUS45 KPSR 231010
RWRAZ

ARIZONA HOURLY REGIONAL WEATHER ROUNDUP
NATIONAL WEATHER SERVICE PHOENIX AZ
300 AM MST MON JAN 23 2017

NOTE: FAIR INDICATES FEW OR NO CLOUDS BELOW 12,000 FEET WITH NO
SIGNIFICANT WEATHER AND/OR OBSTRUCTIONS TO VISIBILITY.

AZZ001>003-036-231100-
NORTHWEST ARIZONA

CITY           SKY/WX    TMP DP  RH WIND       PRES   REMARKS
BULLHEAD CITY  CLOUDY    57  43  58 S16G23    29.81F
KINGMAN        CLOUDY    49  35  58 S18G31    29.83F
$$

AZZ004>008-015-016-018-231100-
NORTH CENTRAL ARIZONA

CITY           SKY/WX    TMP DP  RH WIND       PRES   REMARKS
GRAND CANYON   CLOUDY    32  30  92 S20       29.87F WCI  20
WILLIAMS       CLOUDY    32  28  86 S16G22    29.91F WCI  21
PRESCOTT       CLOUDY    40  32  73 SW16G25   29.94F WCI  31
FLAGSTAFF      LGT SNOW  29  28  96 SW14      29.93F VSB 1   WCI  18
PAYSON         CLOUDY    39  30  70 CALM      30.03F
PAGE           PTCLDY    40  29  64 S12       29.83F WCI  33
$$

AZZ009>014-017-231100-
NORTHEAST ARIZONA

CITY           SKY/WX    TMP DP  RH WIND       PRES   REMARKS
WINSLOW        CLEAR     41  30  65 S23G31    29.91F
SAINT JOHNS    PTCLDY    33  28  81 CALM      29.97F
SHOW LOW       CLEAR     32  23  69 S25G32    29.99F WCI  19
$$

AZZ023-231100-
GREATER PHOENIX AREA

CITY           SKY/WX    TMP DP  RH WIND       PRES   REMARKS
PHOENIX        CLOUDY    53  40  61 E5        29.94F
BUCKEYE        CLOUDY    54  41  62 E6        29.95S
LUKE AFB       MOCLDY    53  43  69 W3        29.94F
DEER VALLEY    CLOUDY    55  38  52 SE9       29.94F
SCOTTSDALE     CLOUDY    56  35  45 S5        29.96F
MESA-GATEWAY   CLOUDY    50  41  71 S7        29.96F
$$

AZZ027-028-231100-
SOUTHWEST MARICOPA COUNTY AND PINAL COUNTY

CITY           SKY/WX    TMP DP  RH WIND       PRES   REMARKS
CASA GRANDE    CLOUDY    50  39  66 SE9       29.96F
GILA BEND      CLOUDY    53  44  74 CALM      29.93F
$$

AZZ503-504-507>509-231100-
SOUTHEAST ARIZONA

CITY           SKY/WX    TMP DP  RH WIND       PRES   REMARKS
TUCSON         CLEAR     45  31  58 SE13      30.04F
DAVIS-MONTHAN  PTCLDY    43  31  63 SE8       30.03F
NOGALES        CLEAR     37  26  64 NE5       30.08F WCI  33
SIERRA VISTA   CLEAR     44  26  50 E3        30.10F
DOUGLAS        CLEAR     39  33  79 SE7       30.10F WCI  34
SAFFORD        CLEAR     41  32  70 SE8       30.05F
$$

AZZ020-021-025-026-031-231100-
SOUTHWEST ARIZONA

CITY           SKY/WX    TMP DP  RH WIND       PRES   REMARKS
YUMA           CLEAR     57  50  77 S20       29.89F
$$

CAZ031-033-041-043-047-048-061-231100-
SOUTHERN CALIFORNIA

CITY           SKY/WX    TMP DP  RH WIND       PRES   REMARKS
DOWNTOWN L.A.  CLOUDY    53  51  93 CALM      29.89S
L.A. AIRPORT   CLOUDY    55  48  77 W17       29.90S
SAN DIEGO      CLOUDY    59  52  77 SW13      29.97F
BURBANK        CLOUDY    50  47  89 SE6       29.88S
ONTARIO        LGT RAIN  51  49  92 SW10      29.88S
RIVERSIDE      CLOUDY    51  47  86 W15G23    29.90R
PALM SPRINGS   LGT RAIN  51  50  96 CALM      29.86F
EL CENTRO NAS  CLOUDY    60  48  64 SW12      29.91F
IMPERIAL       CLOUDY    60  49  66 W13       29.89F
BLYTHE         PTCLDY    57  46  66 S14       29.88F
NEEDLES        CLOUDY    60  41  49 S12G18    29.83F
$$

NVZ020-UTZ003-231100-
SOUTHERN NEVADA-UTAH

CITY           SKY/WX    TMP DP  RH WIND       PRES   REMARKS
LAS VEGAS      MOCLDY    50  42  74 SE7       29.71F
SALT LAKE CITY CLOUDY    39  30  70 SE16G25   29.59F WCI  30
$$

NMZ009-TXZ055-231100-
NEW MEXICO-WEST TEXAS

CITY           SKY/WX    TMP DP  RH WIND       PRES   REMARKS
ALBUQUERQUE    CLOUDY    37  30  75 CALM      30.04F
EL PASO        CLEAR     41  29  62 SW9       30.07F
$$


........................KEY........................
SKY/WX - SKY CONDITION/WEATHER
TMP    - TEMPERATURE IN FAHRENHEIT
DP     - DEW POINT IN FAHRENHEIT
RH     - RELATIVE HUMIDITY IN PERCENT
WIND   - DIRECTION AND SPEED IN MILES PER HOUR (MPH)
VRB    - VARIABLE WIND DIRECTION
PRES   - MEAN SEA LEVEL PRESSURE IN INCHES OF MERCURY
         F - FALLING PRESSURE   R - RISING PRESSURE
         S - STEADY PRESSURE
VSB    - VISIBILITY IN MILES
HX     - HEAT INDEX IN FAHRENHEIT
WCI    - WIND CHILL INDEX IN FAHRENHEIT
TC     - TEMPERATURE IN CELSIUS WHICH IS ALSO KNOWN AS
         TEMPERATURE IN CENTIGRADE
AFB    - AIR FORCE BASE
         LUKE AFB IS LUKE AIR FORCE BASE
         DAVIS-MONTHAN IS DAVIS-MONTHAN AIR FORCE BASE
NAS    - NAVAL AIR STATION
         EL CENTRO NAS IS EL CENTRO NAVAL AIR STATION
N/A    - NOT AVAILABLE




USA.gov is the U.S. government's official web portal to all federal, state and local government web resources and services.